Regional Weather Roundup
Issued by NWS

Home | Current Version | Previous Version | Text Only | Print | Product List | Glossary On
Versions: 1 2 3 4 5 6 7 8 9 10 11 12 13 14 15 16 17 18 19 20 21 22 23 24 25 26 27 28 29 30 31 32 33 34 35 36 37 38 39 40 41 42 43 44 45 46 47 48 49 50
000
ASUS43 KIND 290109
RWRIN

WEATHER ROUNDUP FOR INDIANA
NATIONAL WEATHER SERVICE INDIANAPOLIS IN
900 PM EDT FRI APR 28 2017

NOTE: "FAIR" INDICATES FEW OR NO CLOUDS BELOW 12,000 FEET WITH NO
SIGNIFICANT WEATHER AND/OR OBSTRUCTIONS TO VISIBILITY.

* - STATION DOES NOT REPORT WEATHER SUCH AS PRECIPITATION OR FOG.

+ - STATION NOT QUALITY CONTROLLED BY THE NATIONAL WEATHER SERVICE.
    USE DATA WITH CAUTION...ESPECIALLY DEWPOINT AND RELATIVE
    HUMIDITY OBSERVATIONS.

INZ001>003-010>013-019-020-290200-
NORTHWEST INDIANA

CITY           SKY/WX    TMP DP  RH WIND       PRES   REMARKS
GARY /AIRPORT/ PTCLDY    50  45  81 CALM      29.90R
KNOX *+        CLOUDY    54  34  47 SE7       29.90R
LA PORTE +     CLOUDY    56  51  82 CALM      29.91R
MICHIGAN CITY+ CLOUDY    55  50  82 CALM      29.90R
MONTICELLO +   LGT RAIN  54  52  94 E3        29.89R
RENSSELAER +   CLOUDY    55  52  88 E7        29.88S
VALPARAISO     CLOUDY    57  52  83 SE3       29.90R

$$

LMZ046-743>745-290200-
SOUTHERN LAKE MICHIGAN

STATION/POSITION TIME  TEMP    WIND        PRES    WAVE
                       AIR SEA DIR/SP/G            HT
                 (UTC) (F)     (DEG/KT/KT) (MB)    (FT)
BURNS HARBOR     0040   50     100/  2/  5 1012.5S
MICHIGAN CITY    0040   57     160/  5/  6   N/A
5NW MICH CITY    0100   46 46                N/A     1

$$

INZ004-005-014>016-021>024-290200-
NORTH CENTRAL INDIANA

CITY           SKY/WX    TMP DP  RH WIND       PRES   REMARKS
ELKHART        CLOUDY    57  48  72 S6        29.92R
GOSHEN         CLOUDY    55  46  71 SE8       29.91R
LOGANSPORT +   LGT RAIN  52  50  93 E7        29.91R
PERU/GRISSOM   LGT RAIN  53  53 100 E6        29.89R
ROCHESTER +    LGT RAIN  55  52  88 E7        29.92R
SOUTH BEND     CLOUDY    56  50  80 S6        29.91S
WARSAW +       CLOUDY    54  48  82 SE3       29.92R

$$

INZ006>009-017-018-025>027-290200-
NORTHEAST INDIANA

CITY           SKY/WX    TMP DP  RH WIND       PRES   REMARKS
ANGOLA *+      MOCLDY    54  43  66 SE3       29.93R
AUBURN +       CLOUDY    52  50  93 CALM      29.93S
FORT WAYNE     CLOUDY    53  48  83 NE5       29.92R
HUNTINGTON +   RAIN      52  51  95 CALM      29.92R
KENDALLVILLE + CLOUDY    52  49  89 CALM      29.93R

$$

INZ028-029-035-036-043>045-051>053-290200-
WEST CENTRAL INDIANA

CITY           SKY/WX    TMP DP  RH WIND       PRES   REMARKS
CRAWFORDSVL +  DRIZZLE   53  53 100 E5        29.87F
GREENCASTLE +  CLOUDY    54  54 100 NE3       29.87F FOG
LAFAYETTE      LGT RAIN  54  54 100 E5        29.88S FOG
TERRE HAUTE    LGT RAIN  57  54  89 E9        29.83F

$$

INZ030>032-037>040-046>048-054>057-064-065-290200-
CENTRAL INDIANA

CITY           SKY/WX    TMP DP  RH WIND       PRES   REMARKS
CP ATTERBURY + CLOUDY    61  57  88 N6        29.90F THUNDER
COLUMBUS       LGT RAIN  61  57  88 S6        29.86R
FISHERS *+     CLOUDY    54  54 100 E5        29.86
FRANKFORT +    LGT RAIN  57  55  94 E8        29.90S
GREENWOOD *+   CLOUDY    59  55  87 E9        29.86R
INDIANAPOLIS   CLOUDY    56  54  93 NE8       29.86R
-EAGLE CREEK   CLOUDY    57  53  86 E3        29.85F
KOKOMO +       RAIN      54  52  93 NE3       29.92R FOG
MARION +       LGT RAIN  54  54 100 N7        29.91R
MT COMFORT *+  CLOUDY    55  54  94 NE12      29.87R
SHELBYVILLE    LGT RAIN  60  54  80 E8G33     29.87R
ZIONSVILLE +   CLOUDY    54  53  96 N6        29.89F

$$

INZ033-034-041-042-049-050-058-059-290200-
EAST CENTRAL INDIANA

CITY           SKY/WX    TMP DP  RH WIND       PRES   REMARKS
MUNCIE         LGT RAIN  57  53  86 S8G24     29.88R
RICHMOND +     HVY RAIN  54  52  94 E17       29.92R VSB 1

$$

INZ060-061-067>069-081>083-085>088-290200-
SOUTHWEST INDIANA

CITY           SKY/WX    TMP DP  RH WIND       PRES   REMARKS
EVANSVILLE     TSTM      73  68  84 S5        29.81F
WASHINGTON +   CLOUDY    65  62  93 NW5       29.82R

$$

INZ062-063-066-070>080-084-089>092-290200-
SOUTH CENTRAL AND SOUTHEAST INDIANA

CITY           SKY/WX    TMP DP  RH WIND       PRES   REMARKS
BEDFORD +      PTCLDY    64  61  88 CALM      29.82  THUNDER
BLOOMINGTON    CLOUDY    59  57  93 N7        29.84R
MADISON *+     CLOUDY    70  63  78 S8        29.85S
SEYMOUR +      TSTM      64  63  94 N9        29.83R

$$





USA.gov is the U.S. government's official web portal to all federal, state and local government web resources and services.